This demonstration page uses our WeatherBlox Daily Observations layout. Learn more.

38.88101, -77.10428

Hourly Observations for June 21, 2015

Temp ( °F °C ) Dew Point ( °F °C ) Humidity (%) Winds ( mph kmh ) Pressure ( in mb ) Visibility ( mi km ) Precip ( " mm )
1:25 am 01:25 Cloudy with Light Rain 75 24 72 22 89 89 S 7 11 29.77 1008 10 16.0934 0 0.0254
1:34 am 01:34 Cloudy 75 24 72 22 89 89 S 10 17 29.77 1008 10 16.0934 0 0.0254
1:42 am 01:42 Cloudy 75 24 72 22 89 89 S 9 15 29.74 1007 10 16.0934 0 0
1:52 am 01:52 Cloudy 76 24.4 72 22.2 88 88 SSW 6 9 29.75 1007 10 16.0934 0 0.0254
2:31 am 02:31 Cloudy 77 25 72 22 83 83 S 7 11 29.74 1007 10 16.0934 0 0
2:52 am 02:52 Cloudy 77 25 72 22.2 85 85 SSW 7 11 29.73 1007 10 16.0934 0 0
3:52 am 03:52 Cloudy with Light Rain 76 24.4 72 22.2 88 88 W 5 7 29.72 1007 5 8.0467 0 0.0254
4:23 am 04:23 Cloudy with Light Rain 75 24 72 22 89 89 W 6 9 29.74 1007 10 16.0934 0.03 0.762
4:52 am 04:52 Cloudy with Light Rain 76 24.4 72 22.2 88 88 W 6 9 29.74 1007 10 16.0934 0.03 0.762
4:58 am 04:58 Cloudy with Light Rain 75 24 72 22 89 89 WSW 3 6 29.74 1007 10 16.0934 0 0
5:37 am 05:37 Cloudy 75 24 72 22 89 89 W 6 9 29.77 1008 10 16.0934 0 0.0254
5:52 am 05:52 Cloudy with Light Rain 77 25 72 22.2 85 85 WNW 7 11 29.77 1008 10 16.0934 0 0.0254
6:52 am 06:52 Mostly Cloudy 77 25 71 21.7 82 82 W 7 11 29.8 1009 10 16.0934 0 0.0254
7:52 am 07:52 Mostly Cloudy 79 26.1 71 21.7 77 77 W 8 13 29.82 1010 10 16.0934 0 0
8:52 am 08:52 Partly Cloudy 82 27.8 70 21.1 67 67 WNW 12 19 29.83 1010 10 16.0934 0 0
9:52 am 09:52 Mostly Cloudy 85 29.4 70 21.1 61 61 NW 15 24 29.84 1011 10 16.0934 0 0
10:52 am 10:52 Partly Cloudy 87 30.6 69 20.6 55 55 W 9 15 29.84 1011 10 16.0934 0 0
11:52 am 11:52 Mostly Cloudy 89 31.7 69 20.6 52 52 W 13 20 29.85 1011 10 16.0934 0 0
12:52 pm 12:52 Mostly Cloudy 91 32.8 69 20.6 49 49 W 15 24 29.85 1011 10 16.0934 0 0
1:52 pm 13:52 Mostly Cloudy 92 33.3 69 20.6 47 47 W 13 20 29.86 1011 10 16.0934 0 0
2:52 pm 14:52 Mostly Cloudy 93 33.9 70 21.1 47 47 WSW 8 13 29.84 1011 10 16.0934 0 0
3:52 pm 15:52 Mostly Cloudy 93 33.9 70 21.1 47 47 WSW 10 17 29.85 1011 10 16.0934 0 0
4:52 pm 16:52 Mostly Cloudy 94 34.4 71 21.7 48 48 WSW 10 17 29.83 1010 10 16.0934 0 0
5:52 pm 17:52 Mostly Cloudy 92 33.3 72 22.2 52 52 WSW 10 17 29.82 1010 10 16.0934 0 0
6:52 pm 18:52 Mostly Cloudy 92 33.3 72 22.2 52 52 SW 10 17 29.82 1010 10 16.0934 0 0
7:52 pm 19:52 Mostly Cloudy 90 32.2 71 21.7 54 54 WSW 12 19 29.85 1011 10 16.0934 0 0
8:52 pm 20:52 Mostly Cloudy 89 31.7 71 21.7 55 55 W 7 11 29.86 1011 10 16.0934 0 0
9:52 pm 21:52 Mostly Cloudy 88 31.1 71 21.7 57 57 WNW 7 11 29.87 1012 10 16.0934 0 0
10:52 pm 22:52 Mostly Cloudy 86 30 72 22.2 63 63 NNW 7 11 29.89 1012 10 16.0934 0 0
11:52 pm 23:52 Mostly Cloudy 88 31.1 66 18.9 48 48 NW 10 17 29.91 1013 10 16.0934 0 0

Powered by AerisWeather